Wind_Speed
39 41 41 44 47 49 54 57 54 55 54 53 51 57 62 66 75 73 78 83 89 86 76 76 64 53 43 36 32 32 32 34 36 34 33 37 43 50 56 61 64 66 73 86
44 44 45 48 49 49 52 57 60 60 56 57 53 55 65 66 75 76 78 83 87 90 91 82 71 62 55 46 37 35 34 32 32 35 37 37 38 44 50 58 63 67 67 72
47 48 49 51 51 50 52 54 57 63 62 60 58 60 69 69 78 80 84 85 87 89 89 89 80 69 58 53 47 42 40 40 38 36 34 37 40 43 45 51 57 65 69 70
48 51 53 53 54 55 56 56 60 65 62 60 61 65 70 76 81 84 88 87 92 94 92 95 83 79 64 55 51 46 46 46 43 43 42 41 41 42 46 48 51 57 65 73
54 57 59 59 59 59 58 54 59 69 69 66 64 64 68 82 85 88 92 93 94 93 92 94 86 80 72 59 53 50 48 50 48 48 48 48 49 49 49 50 52 54 58 64
59 61 63 61 62 62 63 64 66 69 68 68 67 69 70 81 86 91 94 97 99 100 101 94 89 84 76 64 57 52 51 50 52 54 53 52 52 56 55 55 56 56 57 61
64 65 66 65 67 68 67 68 67 67 66 67 69 73 74 84 88 92 93 100 102 103 103 101 91 85 78 74 61 57 53 52 53 56 58 57 56 57 58 58 59 60 61 63
67 70 69 66 69 67 70 71 73 68 69 67 74 85 79 86 91 93 97 100 101 104 103 103 93 89 80 77 67 63 59 58 57 57 58 60 63 62 61 62 63 65 65 66
68 72 69 68 68 72 74 75 76 73 75 72 73 89 87 90 95 98 103 104 104 105 107 106 100 90 83 77 70 67 64 64 63 62 63 63 64 65 65 64 64 64 67 67
72 74 73 71 71 76 81 83 84 83 85 81 79 92 96 98 100 104 110 110 111 107 111 108 101 92 86 81 74 72 67 66 66 67 63 64 68 68 67 64 61 60 62 66
74 74 75 76 80 81 83 89 88 88 90 92 87 96 103 106 105 110 116 115 116 114 113 109 103 94 87 82 78 77 72 68 71 74 73 68 66 67 66 65 61 60 62 63
74 74 75 78 83 84 84 88 95 98 95 99 98 101 110 111 113 116 120 119 116 115 114 110 104 97 89 85 82 79 78 77 78 80 79 71 66 65 64 63 64 63 63 63
77 79 80 81 83 83 85 92 101 105 103 103 105 110 118 117 120 122 124 125 118 117 116 111 104 100 94 86 82 80 80 79 80 81 84 82 68 63 63 62 61 64 61 62
83 84 87 88 91 92 90 97 105 109 111 114 113 113 121 124 124 127 127 126 119 116 114 112 109 102 97 86 85 83 81 80 79 80 81 76 70 63 61 61 60 60 60 60
92 88 88 88 92 92 92 100 106 108 110 114 113 119 125 125 127 129 126 124 119 115 114 110 108 106 102 92 88 87 84 84 83 82 79 75 70 63 59 60 59 57 58 58
96 92 93 87 94 96 94 104 110 113 114 119 122 122 128 129 132 130 126 123 117 116 114 111 108 104 102 95 92 94 90 89 86 82 80 77 73 67 60 59 59 57 56 58
97 98 102 97 104 101 99 104 113 116 120 126 126 129 131 132 129 127 121 121 118 115 112 110 107 104 104 100 99 96 93 92 90 84 80 75 73 70 65 61 60 57 55 57
99 104 106 107 109 108 109 114 118 121 125 132 136 137 136 138 133 119 118 120 117 113 112 110 106 106 107 102 100 98 94 93 90 84 78 71 68 67 66 61 58 58 55 56
108 110 113 118 120 118 114 122 127 128 127 132 134 133 130 129 115 113 112 111 115 115 113 113 111 110 109 104 102 99 95 92 88 84 76 70 66 65 63 60 57 55 55 56
108 112 115 117 125 128 128 130 133 135 133 134 137 128 124 121 116 113 111 110 112 113 113 115 113 112 109 104 98 94 93 91 87 81 73 67 63 59 57 56 54 54 54 56
115 116 120 121 129 132 134 140 141 140 136 135 129 125 120 115 116 119 117 117 116 118 116 114 112 108 103 100 94 92 92 89 85 76 69 63 59 56 56 56 57 57 56 57
120 123 125 128 132 137 141 144 143 143 136 125 123 118 116 118 121 123 125 121 119 118 116 111 108 103 100 96 93 91 91 87 80 74 67 60 57 54 53 52 52 53 53 54
125 126 131 135 137 141 142 144 141 130 128 126 123 121 120 121 122 124 126 124 122 118 113 108 104 99 96 93 91 90 88 83 77 72 63 57 54 52 50 48 47 47 49 50
132 135 134 137 142 143 135 126 123 120 122 122 125 124 124 124 125 127 128 125 119 113 110 105 101 96 94 92 91 87 86 80 74 67 60 55 52 50 48 46 45 44 45 47
136 140 143 145 143 137 126 123 125 124 122 123 125 126 126 126 127 127 123 119 115 111 106 101 96 94 92 90 88 86 82 77 69 63 56 53 51 49 47 46 45 44 44 46
146 148 150 148 135 127 121 116 119 118 119 123 126 126 126 128 126 121 117 112 109 105 99 95 91 91 89 87 86 83 77 70 63 58 54 52 50 48 48 47 47 46 46 47
Wind_Direction
342 341 340 342 345 350 352 352 348 350 349 353 357 359 2 7 2 4 6 5 4 3 4 3 359 351 339 327 325 323 316 308 304 299 292 276 263 256 248 246 245 244 244 242
341 342 340 339 338 342 346 348 346 340 346 351 354 359 356 1 1 1 3 3 1 0 1 1 360 352 346 334 325 320 318 311 305 302 299 291 282 270 260 252 247 247 246 244
337 337 336 334 333 335 340 343 343 342 342 346 351 355 357 358 357 356 358 359 358 357 357 357 356 352 345 338 327 319 316 312 308 305 299 296 288 278 275 266 257 250 245 245
333 333 332 330 328 332 336 340 341 338 339 341 345 352 352 353 353 354 354 355 355 355 353 353 352 349 345 336 329 318 311 307 303 300 299 298 296 290 280 272 268 260 254 246
331 332 332 332 331 332 332 331 336 337 334 339 342 349 350 349 351 351 349 350 350 350 349 349 348 346 342 336 330 322 311 304 300 298 294 290 290 290 288 283 274 266 259 253
328 330 331 331 331 330 329 330 332 335 333 334 338 345 349 349 350 348 347 349 346 347 347 345 344 343 340 334 328 323 313 304 298 295 293 290 287 283 283 283 279 272 264 255
325 328 329 327 329 329 328 329 331 333 335 336 339 341 348 346 345 344 342 345 344 343 343 343 340 338 339 336 328 321 314 304 297 293 287 285 285 284 282 281 280 276 271 262
323 325 328 326 326 329 329 328 329 331 334 339 340 338 344 344 343 341 339 340 339 341 340 340 338 337 337 335 326 321 313 307 300 295 292 287 283 282 282 280 278 275 267 264
319 321 323 324 324 327 325 327 327 329 332 333 338 336 339 339 340 339 338 339 337 336 339 337 336 335 334 333 324 316 311 303 305 302 296 291 286 283 281 277 279 279 268 264
317 319 320 321 321 323 323 322 325 327 332 333 339 335 335 336 336 334 336 336 334 334 334 336 334 335 334 333 324 316 310 307 304 302 302 296 290 288 285 281 279 281 273 265
315 318 318 317 319 321 325 325 325 327 330 333 338 333 334 335 334 334 334 333 332 332 331 333 333 333 331 331 324 319 315 310 305 306 306 303 294 288 285 282 279 277 273 269
315 317 317 317 320 321 324 327 327 325 328 329 334 330 328 331 332 333 331 330 331 329 329 331 330 330 331 330 329 323 317 313 310 308 309 306 299 290 286 283 281 278 273 270
312 313 315 317 319 321 325 326 322 324 329 326 331 331 325 331 330 328 328 329 328 327 327 329 329 329 330 329 328 322 316 311 310 310 307 305 301 291 286 282 281 280 275 270
312 314 315 319 320 322 329 328 323 324 325 327 325 328 322 327 327 327 326 327 326 325 326 327 328 327 329 327 325 324 319 313 311 310 308 303 300 294 287 283 282 281 276 271
312 315 316 319 317 321 326 322 320 321 320 321 321 321 321 325 325 326 323 324 323 324 325 325 325 325 328 327 325 324 320 315 315 313 311 305 300 295 288 283 283 280 277 272
313 314 315 317 316 318 325 318 319 319 318 319 320 319 321 322 322 322 321 320 322 323 324 324 324 324 326 324 324 322 320 317 316 314 311 306 301 296 290 284 281 278 276 272
312 314 315 317 313 315 320 318 318 319 316 316 317 318 318 318 319 319 319 320 321 321 322 322 322 324 324 323 323 321 318 317 316 313 310 304 298 294 289 286 281 276 274 270
312 313 314 315 314 316 317 315 316 315 315 316 316 316 315 316 318 318 318 318 318 319 319 320 322 323 321 320 321 319 316 316 315 312 308 304 299 294 290 286 279 276 272 268
313 311 310 311 310 313 317 314 313 313 313 312 313 313 314 314 313 315 315 314 315 316 317 320 321 320 319 319 318 317 315 315 314 311 308 303 299 293 289 285 281 277 271 268
308 310 311 312 310 311 312 310 310 309 311 311 312 312 312 312 313 314 316 316 316 316 316 318 317 316 318 318 317 315 314 315 312 310 307 304 298 293 289 285 281 277 273 267
307 307 307 307 307 309 309 308 308 309 309 310 311 312 311 312 312 313 314 314 316 316 317 315 314 315 316 315 314 313 314 314 313 310 307 304 298 294 291 287 282 277 273 269
304 304 305 305 307 307 306 307 307 308 310 310 310 311 311 311 312 313 313 313 313 314 314 315 314 314 314 313 312 312 312 313 313 310 306 302 300 299 295 289 283 278 273 269
302 302 302 302 303 304 304 305 306 309 310 309 310 310 308 308 310 311 312 312 313 313 314 313 312 312 313 311 311 310 311 312 312 308 304 304 303 300 295 291 285 281 276 272
299 299 298 298 297 300 303 304 305 307 307 306 306 306 307 307 308 310 311 312 311 312 311 311 311 310 310 309 309 310 311 311 310 305 304 305 302 299 295 292 289 284 280 275
297 297 297 298 299 302 304 303 304 303 302 305 307 306 306 305 307 309 311 311 311 311 310 309 309 308 307 308 309 309 311 309 306 303 304 303 300 298 296 293 290 287 282 279
295 295 297 299 300 300 300 301 301 302 304 305 305 304 304 306 308 310 310 310 310 309 308 308 307 307 307 308 308 309 308 306 303 303 303 300 299 298 296 294 291 288 285 283
Height
10783 10776 10769 10762 10754 10747 10740 10733 10726 10721 10710 10702 10693 10682 10671 10662 10653 10644 10635 10625 10617 10608 10599 10590 10581 10572 10563 10555 10548 10542 10537 10531 10526 10523 10520 10518 10515 10514 10514 10515 10516 10520 10523 10525
10778 10772 10765 10759 10753 10745 10737 10729 10720 10713 10706 10695 10688 10680 10668 10658 10647 10640 10630 10620 10611 10601 10593 10583 10574 10566 10557 10549 10540 10534 10530 10525 10520 10516 10512 10509 10506 10503 10500 10500 10499 10500 10502 10505
10773 10767 10761 10755 10748 10741 10733 10723 10715 10705 10694 10687 10681 10673 10661 10650 10640 10631 10620 10611 10603 10593 10583 10575 10566 10556 10548 10540 10532 10524 10519 10514 10510 10505 10501 10497 10494 10491 10488 10485 10484 10483 10483 10485
10768 10762 10756 10749 10741 10734 10726 10718 10709 10700 10690 10681 10672 10665 10654 10642 10632 10620 10610 10601 10593 10585 10573 10565 10557 10547 10537 10529 10522 10514 10507 10502 10496 10493 10488 10483 10480 10476 10473 10470 10468 10466 10466 10465
10762 10757 10750 10743 10734 10726 10720 10714 10705 10694 10680 10672 10662 10656 10646 10633 10622 10610 10601 10591 10582 10574 10565 10555 10545 10536 10526 10517 10510 10502 10495 10488 10483 10478 10473 10469 10464 10460 10457 10454 10450 10448 10447 10446
10755 10748 10742 10735 10727 10719 10712 10705 10698 10690 10677 10665 10655 10647 10640 10627 10616 10605 10592 10581 10570 10562 10554 10543 10533 10524 10514 10504 10496 10488 10481 10475 10468 10462 10456 10451 10446 10442 10438 10435 10432 10429 10426 10426
10745 10739 10733 10724 10717 10708 10701 10695 10689 10683 10672 10657 10644 10636 10632 10620 10609 10598 10587 10575 10561 10548 10538 10528 10517 10508 10499 10489 10481 10474 10467 10459 10452 10445 10439 10433 10428 10423 10419 10415 10412 10408 10406 10404
10735 10728 10723 10716 10709 10701 10691 10682 10674 10669 10662 10652 10632 10619 10621 10611 10600 10588 10576 10563 10551 10540 10525 10513 10502 10492 10483 10474 10465 10458 10450 10442 10434 10427 10420 10415 10408 10402 10399 10396 10391 10386 10382 10381
10729 10718 10711 10705 10696 10687 10679 10670 10661 10654 10649 10642 10632 10611 10602 10596 10586 10574 10562 10549 10538 10526 10514 10504 10491 10477 10466 10458 10449 10440 10431 10422 10414 10407 10400 10393 10388 10382 10378 10375 10369 10362 10359 10357
10718 10710 10698 10693 10685 10676 10663 10650 10643 10635 10627 10623 10619 10602 10586 10581 10569 10557 10544 10533 10523 10511 10500 10488 10475 10461 10450 10440 10430 10421 10411 10402 10394 10386 10379 10372 10365 10359 10354 10350 10346 10340 10335 10333
10707 10700 10686 10678 10672 10665 10653 10636 10624 10617 10610 10599 10598 10589 10571 10563 10552 10537 10524 10515 10504 10490 10479 10467 10456 10444 10433 10422 10412 10400 10390 10381 10372 10363 10355 10347 10339 10334 10328 10324 10321 10317 10313 10310
10692 10687 10681 10669 10656 10650 10643 10625 10608 10600 10599 10584 10579 10575 10553 10543 10532 10517 10506 10494 10480 10469 10455 10443 10432 10423 10413 10400 10388 10377 10366 10357 10347 10338 10329 10320 10313 10307 10300 10297 10294 10290 10288 10286
10679 10672 10666 10658 10645 10637 10630 10613 10592 10580 10576 10567 10559 10548 10529 10524 10511 10498 10487 10472 10459 10446 10434 10424 10413 10400 10389 10378 10369 10358 10348 10337 10326 10315 10304 10295 10290 10283 10277 10272 10268 10264 10262 10260
10661 10658 10643 10634 10620 10611 10607 10590 10571 10557 10549 10541 10536 10534 10505 10502 10491 10482 10465 10452 10440 10429 10415 10404 10390 10380 10370 10357 10347 10337 10327 10316 10304 10294 10283 10270 10263 10258 10253 10249 10244 10240 10238 10235
10641 10641 10627 10622 10606 10600 10598 10580 10558 10545 10534 10519 10524 10506 10494 10484 10468 10456 10443 10431 10418 10406 10395 10383 10372 10360 10348 10336 10325 10315 10304 10293 10282 10271 10258 10247 10239 10236 10231 10226 10221 10217 10215 10213
10624 10614 10608 10612 10591 10582 10587 10562 10547 10531 10519 10506 10494 10491 10470 10463 10451 10439 10424 10410 10399 10385 10373 10361 10351 10340 10328 10315 10303 10291 10280 10269 10259 10248 10236 10225 10216 10210 10207 10204 10200 10196 10193 10192
10603 10589 10579 10584 10572 10567 10567 10550 10531 10518 10501 10488 10479 10466 10458 10446 10433 10416 10402 10389 10377 10367 10356 10342 10331 10318 10304 10293 10280 10268 10257 10245 10235 10224 10214 10202 10193 10185 10182 10179 10177 10174 10172 10171
10579 10566 10554 10547 10539 10540 10538 10523 10511 10498 10485 10469 10456 10446 10435 10424 10409 10393 10378 10365 10355 10345 10334 10323 10311 10298 10285 10273 10260 10247 10234 10223 10212 10201 10190 10179 10171 10163 10157 10155 10153 10151 10151 10151
10561 10548 10536 10523 10513 10512 10521 10495 10480 10471 10470 10453 10441 10428 10413 10400 10389 10374 10362 10348 10334 10323 10312 10299 10287 10276 10263 10251 10237 10225 10213 10201 10189 10177 10167 10157 10149 10142 10137 10133 10130 10129 10128 10129
10555 10538 10521 10509 10486 10481 10481 10470 10460 10447 10447 10430 10417 10405 10393 10377 10366 10353 10339 10327 10315 10303 10291 10276 10265 10252 10240 10227 10215 10204 10191 10180 10168 10156 10145 10136 10128 10122 10117 10113 10110 10109 10108 10108
10523 10510 10501 10488 10469 10462 10454 10441 10427 10416 10408 10401 10385 10376 10362 10351 10339 10329 10319 10307 10292 10277 10265 10254 10242 10230 10217 10206 10193 10182 10170 10159 10147 10134 10125 10116 10110 10103 10098 10093 10090 10089 10088 10087
10500 10486 10476 10463 10452 10438 10427 10411 10398 10388 10381 10369 10358 10349 10337 10324 10313 10302 10289 10277 10267 10256 10242 10230 10218 10207 10195 10183 10171 10160 10149 10138 10126 10114 10105 10098 10090 10084 10079 10074 10070 10068 10066 10066
10472 10467 10452 10443 10430 10412 10399 10386 10372 10363 10352 10340 10330 10320 10312 10300 10287 10276 10264 10252 10241 10229 10218 10206 10195 10183 10172 10161 10150 10139 10127 10116 10105 10096 10087 10079 10071 10067 10062 10058 10053 10050 10048 10047
10454 10443 10432 10418 10414 10399 10385 10370 10356 10344 10334 10322 10310 10298 10285 10273 10261 10250 10238 10226 10214 10203 10192 10181 10170 10160 10149 10138 10128 10117 10106 10095 10086 10078 10069 10061 10055 10050 10046 10042 10038 10034 10032 10029
10427 10414 10403 10393 10380 10370 10360 10348 10335 10321 10308 10297 10283 10269 10257 10244 10234 10224 10212 10199 10188 10177 10166 10156 10146 10135 10125 10116 10105 10095 10085 10076 10068 10060 10052 10045 10040 10034 10030 10025 10022 10019 10017 10014
10399 10387 10375 10362 10352 10343 10333 10322 10311 10297 10283 10269 10256 10244 10231 10219 10207 10196 10184 10173 10162 10152 10141 10131 10121 10112 10103 10094 10083 10073 10065 10057 10050 10043 10035 10029 10024 10018 10014 10009 10006 10003 10000 9997